TimeCDT,TemperatureF,Dew PointF,Humidity,Sea Level PressureIn,VisibilityMPH,Wind Direction,Wind SpeedMPH,Gust SpeedMPH,PrecipitationIn,Events,Conditions,WindDirDegrees,DateUTC
12:15 AM,46.4,46.4,100,30.01,7.0,SSE,3.5,-,N/A,,Clear,160,2013-04-28 05:15:00
12:35 AM,46.4,46.4,100,30.01,3.0,South,4.6,-,N/A,,Clear,180,2013-04-28 05:35:00
12:55 AM,46.4,46.4,100,30.01,0.8,SSE,3.5,-,N/A,,Mist,160,2013-04-28 05:55:00
1:15 AM,46.4,44.6,93,30.00,0.2,Calm,Calm,-,N/A,Fog,Fog,0,2013-04-28 06:15:00
1:35 AM,44.6,44.6,100,30.00,0.2,SSE,3.5,-,N/A,Fog,Fog,150,2013-04-28 06:35:00
1:55 AM,44.6,42.8,93,30.00,0.2,SE,3.5,-,N/A,Fog,Fog,140,2013-04-28 06:55:00
2:15 AM,44.6,42.8,93,30.00,0.2,SE,4.6,-,N/A,Fog,Fog,140,2013-04-28 07:15:00
2:35 AM,42.8,42.8,100,29.99,0.2,SE,4.6,-,N/A,Fog,Fog,140,2013-04-28 07:35:00
2:55 AM,42.8,42.8,100,29.98,0.2,ESE,6.9,-,N/A,Fog,Fog,110,2013-04-28 07:55:00
3:15 AM,44.6,44.6,100,29.99,1.8,SE,3.5,-,N/A,,Mist,140,2013-04-28 08:15:00
3:35 AM,42.8,42.8,100,29.99,0.2,SSE,3.5,-,N/A,Fog,Fog,160,2013-04-28 08:35:00
3:55 AM,42.8,42.8,100,29.99,0.2,SSW,3.5,-,N/A,Fog,Fog,200,2013-04-28 08:55:00
4:15 AM,42.8,42.8,100,29.99,0.5,Calm,Calm,-,N/A,Fog,Fog,0,2013-04-28 09:15:00
4:35 AM,42.8,41.0,93,30.00,0.2,SSW,3.5,-,N/A,Fog,Fog,210,2013-04-28 09:35:00
4:55 AM,42.8,42.8,100,30.01,0.2,SW,3.5,-,N/A,Fog,Fog,220,2013-04-28 09:55:00
5:15 AM,41.0,41.0,100,30.01,0.2,SSW,3.5,-,N/A,Fog,Fog,210,2013-04-28 10:15:00
5:35 AM,42.8,41.0,93,30.00,0.2,SSW,5.8,-,N/A,Fog,Fog,200,2013-04-28 10:35:00
5:55 AM,42.8,42.8,100,30.01,0.2,South,4.6,-,N/A,Fog,Fog,190,2013-04-28 10:55:00
6:24 AM,42.8,42.8,100,30.00,0.2,South,5.8,-,N/A,Fog,Fog,180,2013-04-28 11:24:00
6:55 AM,42.8,42.8,100,30.00,0.1,South,5.8,-,N/A,Fog,Fog,190,2013-04-28 11:55:00
8:30 AM,50.0,50.0,100,30.02,1.0,South,11.5,-,N/A,,Partly Cloudy,180,2013-04-28 13:30:00
8:50 AM,53.6,53.6,100,30.01,5.0,South,11.5,-,N/A,,Partly Cloudy,190,2013-04-28 13:50:00
9:50 AM,53.6,53.6,100,30.01,5.0,South,11.5,-,N/A,,Partly Cloudy,190,2013-04-28 14:50:00
9:55 AM,59.0,57.2,94,29.99,10.0,SSW,9.2,17.3,N/A,,Partly Cloudy,200,2013-04-28 14:55:00
10:50 AM,64.4,57.2,77,29.97,10.0,South,10.4,19.6,N/A,,Clear,190,2013-04-28 15:50:00
11:50 AM,69.8,59.0,68,29.95,10.0,SSW,9.2,-,N/A,,Clear,210,2013-04-28 16:50:00
1:50 PM,77.0,57.2,50,29.88,10.0,South,17.3,24.2,N/A,,Clear,190,2013-04-28 18:50:00
2:50 PM,80.6,53.6,39,29.86,10.0,SSW,17.3,24.2,N/A,,Clear,210,2013-04-28 19:50:00
3:50 PM,80.6,55.4,42,29.83,10.0,SSW,17.3,23.0,N/A,,Clear,200,2013-04-28 20:50:00
4:50 PM,80.6,53.6,39,29.81,10.0,South,16.1,23.0,N/A,,Clear,190,2013-04-28 21:50:00
5:50 PM,80.6,53.6,39,29.79,10.0,SSW,16.1,-,N/A,,Clear,200,2013-04-28 22:50:00
6:50 PM,77.0,59.0,54,29.79,10.0,South,13.8,-,N/A,,Clear,170,2013-04-28 23:50:00
7:50 PM,69.8,59.0,68,29.79,10.0,SSE,9.2,-,N/A,,Partly Cloudy,150,2013-04-29 00:50:00
8:50 PM,62.6,55.4,77,29.80,10.0,SSE,11.5,-,N/A,,Partly Cloudy,150,2013-04-29 01:50:00
9:15 PM,59.0,53.6,82,29.81,10.0,SSE,6.9,-,N/A,,Clear,150,2013-04-29 02:15:00
9:35 PM,59.0,53.6,82,29.81,10.0,SSE,4.6,-,N/A,,Clear,160,2013-04-29 02:35:00
9:55 PM,59.0,53.6,82,29.81,10.0,South,4.6,-,N/A,,Clear,170,2013-04-29 02:55:00
10:15 PM,59.0,53.6,82,29.82,10.0,South,4.6,-,N/A,,Clear,190,2013-04-29 03:15:00
10:35 PM,55.4,51.8,88,29.82,10.0,SSE,6.9,-,N/A,,Clear,160,2013-04-29 03:35:00
10:55 PM,53.6,51.8,94,29.82,10.0,South,6.9,-,N/A,,Clear,170,2013-04-29 03:55:00
11:15 PM,55.4,51.8,88,29.82,10.0,South,3.5,-,N/A,,Clear,190,2013-04-29 04:15:00
11:35 PM,55.4,51.8,88,29.81,10.0,South,5.8,-,N/A,,Clear,170,2013-04-29 04:35:00
11:55 PM,53.6,50.0,88,29.82,10.0,South,5.8,-,N/A,,Clear,180,2013-04-29 04:55:00